CZ-6A DEB, 56583

Orbit data source: Space-Track

CZ-6A DEB, 56583 is space debris in SSO originally from a launch on Fri, 11 Nov 2022 UTC launched from the Taiyaun Space Center, China (TSC). Debris objects in space refer to the collection of defunct objects orbiting the Earth. Examples of debris include non-operational satellites, rocket bodies, and fragments generated from explosions, collisions, or faulty payload assembly.

Loading next visibility...
Identifier
56583, 2022-151ADF
Orbit
SSO
Country
Flag of CNCN / PRC
Related business
Manufacturer
SAST
Mission
Spacecraft
Bus & Motor
Unknown
Mass
Unknown
Launch date (UTC)
2022-11-11 (4 years ago)
Launch vehicle
Unknown
Launch site
Taiyaun Space Center, China (TSC)
Object type
Payload
Rocket body
Debris
Shape & HBR
Unknown shape, 0.1 m
Radar Cross Section
Medium (>0.1 m² and <1 m²)

Expand to show TLE details & history
Last TLE update: 8 hours ago

TLE from 8 hours ago
0 CZ-6A DEB
1 56583U 22151ADF 26236.49117736  .00025633  00000-0  21866-2 0  9999
2 56583  98.6203 327.9564 0044797   0.4496 359.6755 14.96914746183550
Epoch: 2026-08-24T11:47Z
TLE epoch observation values (Epoch: 2026-08-24T11:47:17.723Z)
Latitude
-0.00009°
Longitude
178.36045°
Altitude
548.297 km
Speed
7.605 km/s
True Right ascension
21h 51m 49s
True Declination
0° 00' 00"
Sunlit
Object was in full shadow at epoch
Visualization orbit readout
Latitude
Unknown
Longitude
Unknown
Altitude
Unknown
Speed
Unknown
Apparent Right ascension
Unknown
Apparent Declination
Unknown
Sunlit
N/A
Visualization observer readout
Local Sidereal Time
10:49:19
Azimuth
Unknown
Elevation
Unknown
Doppler factor
Unknown
Orbital elements
Apogee altitude
604.629 km
Perigee altitude
542.347 km
Semi-major axis
6,951.625 km
Eccentricity
0.00448
Inclination
98.6203°
RAAN
327.9564°
Arg. of periapsis
0.4496°
True anomaly
359.67258°
Mean anomaly
359.6755°
Eccentric anomaly
359.67404°
Mean motion
3.74467 °/min
Orbital period
96.14 mins
BSTAR
0.0021866
Loading maneuver chart data...
Computing Atmospheric mass density...
Loading historical data...
Loading historical data...
Loading historical data...
Loading historical data...
Loading historical data...
Loading historical data...
Loading historical data...

Documentation

Showing up to 5 results
|